Location: Kerguer�zec
(48.4509°N, 4.7600°W)
Time: 09:11:55
(UTC+00:00)

H-2A R/B - Pass Details

Date: 09 April 2020
Orbit: 734 x 836 km, 98.2° (Epoch: 06 June)

Event Time Altitude Azimuth Distance (km) Brightness Sun altitude
Rises 19:56:59 0° 172° (S) 3,283 5.0 -9.5°
Reaches altitude 10° 19:59:21 10° 175° (S) 2,343 4.2 -9.8°
Maximum altitude 20:04:29 67° 258° (WSW) 839 2.4 -10.6°
Drops below altitude 10° 20:09:31 10° 341° (NNW) 2,296 5.2 -11.4°
Sets 20:11:49 0° 344° (NNW) 3,213 5.9 -11.7°
